Weather History for Minneapolis, MN

Change the Weather History Date:

Monday, October 4, 2010

  Actual Average Record
Temperature  
Mean Temperature 53 °F 54 °F  
Max Temperature 65 °F 64 °F 89 °F (1922)
Min Temperature 41 °F 44 °F 24 °F (1935)
Degree Days  
Heating Degree Days 12 12  
Month to date heating degree days 50 44  
Since 1 July heating degree days 194 217  
Cooling Degree Days 0 0  
Month to date cooling degree days 0 3  
Year to date cooling degree days 982 750  
Growing Degree Days 2 (Base 50)    
Moisture  
Dew Point 34 °F    
Average Humidity 52    
Maximum Humidity 73    
Minimum Humidity 31    
Precipitation  
Precipitation 0.00 in 0.10 in 4.61 in (2005)
Month to date precipitation T 0.40  
Year to date precipitation 26.43 25.65  
Snow  
Snow 0.00 in 0.00 in T in (1935)
Month to date snowfall 0.0 0.0  
Since 1 July snowfall T T  
Since 1 September snowfall T T  
Snow Depth 0.00 in    
Sea Level Pressure  
Sea Level Pressure 30.33 in    
Wind  
Wind Speed 7 mph (SSE)    
Max Wind Speed 14 mph    
Max Gust Speed 20 mph    
Visibility 10 miles    
Events      
T = Trace of Precipitation, MM = Missing Value Source: NWS Daily Summary

Daily Weather History Graph

Daily Weather History Graph

Search for Another Location

Airport:

Trip Planner

Search our weather history database for the weather conditions in past years. The results will help you decide how hot, cold, wet, or windy it might be!

Date:

Astronomy

Oct. 04, 2010 Rise Set
Actual Time 7:14 AM CDT 6:47 PM CDT
Civil Twilight 6:45 AM CDT 7:17 PM CDT
Nautical Twilight 6:11 AM CDT 7:50 PM CDT
Astronomical Twilight 5:37 AM CDT 8:25 PM CDT
Moon 3:14 AM CDT (10/4) 4:53 PM CDT (10/4)
Length of Visible Light 12h 31m
Length of Day
11h 33m
Waning Crescent, 14% of the Moon is Illuminated
Oct 4
Waning Crescent
Oct 7
New
Oct 14
First Quarter
Oct 22
Full
Oct 30
Last Quarter

Hourly Weather History & Observations

Time (CDT) Temp. Windchill Dew Point Humidity Pressure Visibility Wind Dir Wind Speed Gust Speed Precip Events Conditions
12:53 AM 48.9 °F - 32.0 °F 52% 30.36 in 10.0 mi South 9.2 mph - N/A   Partly Cloudy
1:53 AM 48.0 °F - 30.9 °F 52% 30.36 in 10.0 mi South 6.9 mph - N/A   Partly Cloudy
2:53 AM 46.9 °F - 30.9 °F 54% 30.36 in 10.0 mi South 8.1 mph - N/A   Clear
3:53 AM 46.0 °F 41.9 °F 30.9 °F 56% 30.36 in 10.0 mi South 8.1 mph - N/A   Clear
4:53 AM 44.1 °F 40.1 °F 32.0 °F 63% 30.36 in 10.0 mi SSE 6.9 mph - N/A   Clear
5:53 AM 42.1 °F 40.2 °F 32.0 °F 67% 30.37 in 10.0 mi SE 3.5 mph - N/A   Partly Cloudy
6:53 AM 41.0 °F 36.4 °F 33.1 °F 73% 30.38 in 10.0 mi SE 6.9 mph - N/A   Partly Cloudy
7:53 AM 42.1 °F 37.7 °F 34.0 °F 73% 30.39 in 10.0 mi SE 6.9 mph - N/A   Clear
8:53 AM 46.0 °F 43.9 °F 35.1 °F 66% 30.39 in 10.0 mi SSE 4.6 mph - N/A   Clear
9:53 AM 50.0 °F - 35.1 °F 57% 30.40 in 10.0 mi South 6.9 mph - N/A   Clear
10:53 AM 55.0 °F - 37.0 °F 51% 30.38 in 10.0 mi South 6.9 mph - N/A   Clear
11:53 AM 59.0 °F - 36.0 °F 42% 30.37 in 10.0 mi South 11.5 mph - N/A   Clear
12:53 PM 60.1 °F - 37.0 °F 42% 30.36 in 10.0 mi SSW 8.1 mph - N/A   Clear
1:53 PM 62.1 °F - 36.0 °F 38% 30.33 in 10.0 mi South 8.1 mph - N/A   Clear
2:53 PM 64.0 °F - 34.0 °F 33% 30.30 in 10.0 mi South 8.1 mph - N/A   Clear
3:53 PM 64.9 °F - 35.1 °F 33% 30.29 in 10.0 mi South 8.1 mph - N/A   Clear
4:53 PM 64.9 °F - 35.1 °F 33% 30.28 in 10.0 mi SSE 10.4 mph - N/A   Clear
5:53 PM 64.0 °F - 35.1 °F 34% 30.27 in 10.0 mi South 6.9 mph - N/A   Clear
6:53 PM 62.1 °F - 35.1 °F 37% 30.27 in 10.0 mi SSE 6.9 mph - N/A   Clear
7:53 PM 57.9 °F - 36.0 °F 44% 30.27 in 10.0 mi SSE 6.9 mph - N/A   Clear
8:53 PM 54.0 °F - 37.9 °F 55% 30.27 in 10.0 mi SSE 5.8 mph - N/A   Clear
9:53 PM 55.0 °F - 36.0 °F 49% 30.27 in 10.0 mi SSE 8.1 mph - N/A   Clear
10:53 PM 55.0 °F - 35.1 °F 47% 30.27 in 10.0 mi South 6.9 mph - N/A   Clear
11:53 PM 54.0 °F - 34.0 °F 47% 30.27 in 10.0 mi South 8.1 mph - N/A   Clear